Location: Gro� Glienicke
(52.4675°N, 13.1079°E)
Time: 02:19:11
(UTC+00:00)

Cosmos 2219 Rocket - Pass Details

Date: 06 July 2020
Orbit: 827 x 847 km, 71.0° (Epoch: 04 August)

Event Time Altitude Azimuth Distance (km) Brightness Sun altitude
Rises 20:15:23 0° 185° (S) 3,355 4.9 -5.6°
Reaches altitude 10° 20:17:55 10° 178° (S) 2,428 4.1 -5.9°
Maximum altitude 20:23:06 41° 110° (ESE) 1,186 2.6 -6.4°
Drops below altitude 10° 20:28:20 10° 41° (NE) 2,454 4.8 -6.9°
Sets 20:30:53 0° 35° (NE) 3,395 5.6 -7.1°
